Weather History for Morgantown, WV

Change the Weather History Date:

Monday, January 25, 2010

  Actual Average Record
Temperature  
Mean Temperature 46 °F 32 °F  
Max Temperature 57 °F 39 °F 75 °F (1950)
Min Temperature 34 °F 24 °F -7 °F (1961)
Degree Days  
Heating Degree Days 19 34  
Month to date heating degree days 849 847  
Since 1 July heating degree days 2609 2831  
Cooling Degree Days 0 0  
Month to date cooling degree days 0 0  
Year to date cooling degree days 0 0  
Moisture  
Dew Point 40 °F    
Average Humidity 78    
Maximum Humidity 93    
Minimum Humidity 62    
Precipitation  
Precipitation 0.47 in 0.09 in 1.10 in (1978)
Month to date precipitation 2.21 2.26  
Year to date precipitation 2.21 2.26  
Snow  
Snow 0.00 in - - ()
Month to date snowfall 0.0  
Snow Depth 0.00 in    
Sea Level Pressure  
Sea Level Pressure 29.40 in    
Wind  
Wind Speed 7 mph (SW)    
Max Wind Speed 24 mph    
Max Gust Speed 35 mph    
Visibility 8 miles    
Events Rain , Snow    
T = Trace of Precipitation, MM = Missing Value Source: NWS Daily Summary

Daily Weather History Graph

Daily Weather History Graph

Search for Another Location

Airport:

Trip Planner

Search our weather history database for the weather conditions in past years. The results will help you decide how hot, cold, wet, or windy it might be!

Date:

Astronomy

Jan. 25, 2010 Rise Set
Actual Time 7:33 AM EST 5:31 PM EST
Civil Twilight 7:04 AM EST 6:00 PM EST
Nautical Twilight 6:31 AM EST 6:32 PM EST
Astronomical Twilight 5:59 AM EST 7:04 PM EST
Moon 12:35 PM EST (1/25) 3:07 AM EST (1/25)
Length of Visible Light 10h 55m
Length of Day
9h 58m
Waxing Gibbous, 73% of the Moon is Illuminated
Jan 25
Waxing Gibbous
Jan 30
Full
Feb 5
Last Quarter
Feb 13
New
Feb 21
First Quarter

Hourly Weather History & Observations

Time (EST) Temp. Windchill Dew Point Humidity Pressure Visibility Wind Dir Wind Speed Gust Speed Precip Events Conditions
12:53 AM 55.9 °F - 50.0 °F 80% 29.30 in 6.0 mi SSE 12.7 mph 27.6 mph 0.09 in Rain Rain
1:53 AM 55.9 °F - 52.0 °F 87% 29.31 in 6.0 mi Variable 3.5 mph - 0.11 in Rain Light Rain
2:07 AM 55.4 °F - 51.8 °F 88% 29.31 in 6.0 mi SSE 4.6 mph - 0.02 in Rain Light Rain
2:53 AM 55.9 °F - 53.1 °F 90% 29.29 in 10.0 mi South 4.6 mph - 0.05 in Rain Light Rain
3:25 AM 57.2 °F - 53.6 °F 88% 29.30 in 5.0 mi SW 9.2 mph - 0.06 in Rain Rain
3:36 AM 57.2 °F - 53.6 °F 88% 29.30 in 9.0 mi SW 5.8 mph - 0.07 in Rain Light Rain
3:53 AM 55.9 °F - 52.0 °F 87% 29.28 in 6.0 mi SW 5.8 mph - 0.09 in Rain Light Rain
4:26 AM 55.4 °F - 51.8 °F 88% 29.30 in 8.0 mi SSW 6.9 mph - 0.03 in Rain Light Rain
4:51 AM 55.4 °F - 51.8 °F 88% 29.30 in 10.0 mi SSW 5.8 mph - 0.04 in Rain Light Rain
4:53 AM 55.0 °F - 51.1 °F 86% 29.29 in 10.0 mi SW 6.9 mph - 0.04 in Rain Light Rain
5:53 AM 54.0 °F - 50.0 °F 86% 29.29 in 9.0 mi SW 6.9 mph - 0.01 in Rain Light Rain
6:01 AM 53.6 °F - 50.0 °F 88% 29.29 in 6.0 mi SSW 5.8 mph - 0.01 in Rain Light Rain
6:21 AM 53.6 °F - 50.0 °F 88% 29.29 in 10.0 mi SSW 4.6 mph - 0.01 in   Overcast
6:35 AM 53.6 °F - 48.2 °F 82% 29.30 in 10.0 mi SSW 6.9 mph - 0.01 in   Overcast
6:51 AM 53.6 °F - 48.2 °F 82% 29.27 in 10.0 mi SSW 5.8 mph - 0.01 in   Overcast
6:53 AM 53.1 °F - 48.9 °F 86% 29.27 in 10.0 mi SSW 5.8 mph - 0.01 in   Overcast
7:19 AM 53.6 °F - 48.2 °F 82% 29.29 in 10.0 mi SW 5.8 mph - N/A   Overcast
7:29 AM 53.6 °F - 46.4 °F 77% 29.30 in 10.0 mi SW 6.9 mph - N/A   Overcast
7:53 AM 52.0 °F - 46.9 °F 83% 29.31 in 7.0 mi SSW 4.6 mph - 0.01 in Rain Light Rain
8:49 AM 51.8 °F - 46.4 °F 82% 29.28 in 10.0 mi SW 5.8 mph - 0.03 in   Overcast
8:53 AM 51.1 °F - 46.9 °F 86% 29.27 in 10.0 mi SSW 8.1 mph - 0.03 in   Overcast
9:53 AM 50.0 °F - 45.0 °F 83% 29.32 in 10.0 mi Variable 4.6 mph - 0.01 in Rain Light Rain
10:53 AM 48.9 °F - 44.1 °F 83% 29.34 in 10.0 mi SSW 5.8 mph - 0.01 in Rain Light Rain
11:53 AM 46.9 °F - 39.9 °F 77% 29.36 in 10.0 mi WNW 10.4 mph 18.4 mph 0.00 in   Overcast
12:53 PM 45.0 °F 41.2 °F 36.0 °F 71% 29.37 in 10.0 mi Variable 6.9 mph - N/A   Overcast
1:46 PM 44.6 °F 39.7 °F 35.6 °F 71% 29.38 in 10.0 mi SW 9.2 mph - 0.00 in   Overcast
1:53 PM 44.1 °F 38.6 °F 36.0 °F 73% 29.38 in 10.0 mi WSW 10.4 mph - 0.00 in   Overcast
2:46 PM 42.8 °F 35.8 °F 33.8 °F 70% 29.40 in 9.0 mi West 13.8 mph 20.7 mph 0.01 in Rain Light Rain
2:53 PM 42.1 °F 36.6 °F 34.0 °F 73% 29.42 in 8.0 mi West 9.2 mph 19.6 mph 0.01 in Rain Light Rain
3:50 PM 42.8 °F 38.6 °F 30.2 °F 61% 29.44 in 10.0 mi West 6.9 mph 20.7 mph 0.01 in   Overcast
3:53 PM 42.1 °F 37.7 °F 30.9 °F 65% 29.45 in 10.0 mi Variable 6.9 mph 16.1 mph 0.01 in   Overcast
4:53 PM 42.1 °F 40.2 °F 30.9 °F 65% 29.48 in 10.0 mi Variable 3.5 mph - N/A   Overcast
5:53 PM 39.9 °F 36.7 °F 28.9 °F 65% 29.49 in 10.0 mi WSW 4.6 mph - N/A   Mostly Cloudy
6:53 PM 39.9 °F 35.1 °F 28.9 °F 65% 29.50 in 10.0 mi WSW 6.9 mph - N/A   Mostly Cloudy
7:53 PM 39.0 °F 33.4 °F 28.0 °F 65% 29.52 in 10.0 mi SW 8.1 mph - N/A   Overcast
8:51 PM 37.4 °F 31.4 °F 30.2 °F 75% 29.54 in 2.0 mi WSW 8.1 mph 18.4 mph 0.00 in Snow Light Snow
8:53 PM 36.0 °F 27.1 °F 30.0 °F 79% 29.56 in 1.8 mi WSW 13.8 mph 23.0 mph 0.00 in Snow Light Snow
8:57 PM 35.6 °F 28.0 °F 30.2 °F 81% 29.54 in 1.2 mi SW 10.4 mph 23.0 mph 0.00 in Snow Light Snow
9:03 PM 35.6 °F 27.5 °F 28.4 °F 75% 29.55 in 3.0 mi SW 11.5 mph 23.0 mph 0.00 in Snow Light Snow
9:53 PM 35.1 °F 29.3 °F 27.0 °F 72% 29.59 in 9.0 mi SW 6.9 mph 19.6 mph 0.00 in   Overcast
10:51 PM 35.6 °F 28.6 °F 26.6 °F 70% 29.58 in 10.0 mi SW 9.2 mph - N/A   Overcast
10:53 PM 35.1 °F 29.3 °F 26.1 °F 70% 29.59 in 10.0 mi SW 6.9 mph - N/A   Overcast
11:13 PM 35.6 °F 28.0 °F 26.6 °F 70% 29.58 in 10.0 mi SW 10.4 mph - N/A   Overcast
11:20 PM 35.6 °F 29.9 °F 26.6 °F 70% 29.58 in 10.0 mi Variable 6.9 mph - N/A   Overcast
11:32 PM 35.6 °F 29.9 °F 26.6 °F 70% 29.58 in 7.0 mi SW 6.9 mph - N/A   Overcast
11:43 PM 35.6 °F 28.6 °F 26.6 °F 70% 29.58 in 8.0 mi SW 9.2 mph - N/A   Overcast
11:53 PM 34.0 °F 26.0 °F 27.0 °F 75% 29.60 in 8.0 mi SW 10.4 mph 17.3 mph 0.00 in   Overcast